• In Romania
  • List of Countries
  • For 7 days
  • Water Temperature
  • Satellite Maps
  • Weather Map
  • Weather Widgets
  • user-avatar
    Login

    Hourly Weather Podgory

    Today, 21 October, Sunday

    Time Temperature Precipitation Wind Pressure Humidity
    00:00 +6°C° 0 mm 2 mps 760 mmHg 84%
    01:00 +6°C° 0 mm 2 mps 760 mmHg 85%
    02:00 +5°C° 0 mm 2 mps 761 mmHg 86%
    03:00 +5°C° 0 mm 2 mps 761 mmHg 87%
    04:00 +5°C° 0 mm 2 mps 762 mmHg 88%
    05:00 +4°C° 0 mm 2 mps 762 mmHg 89%
    06:00 +4°C° 0 mm 2 mps 762 mmHg 90%
    07:00 +5°C° 0 mm 2 mps 763 mmHg 85%
    08:00 +6°C° 0 mm 2 mps 763 mmHg 80%
    09:00 +7°C° 0 mm 2 mps 763 mmHg 75%
    10:00 +8°C° 0 mm 2 mps 764 mmHg 70%
    11:00 +8°C° 0 mm 2 mps 764 mmHg 65%
    12:00 +9°C° 0 mm 2 mps 764 mmHg 60%
    13:00 +9°C° 0 mm 2 mps 764 mmHg 60%
    14:00 +9°C° 0 mm 2 mps 764 mmHg 59%
    15:00 +9°C° 0 mm 2 mps 764 mmHg 59%
    16:00 +8°C° 0 mm 2 mps 765 mmHg 64%
    17:00 +7°C° 0 mm 2 mps 765 mmHg 69%
    18:00 +6°C° 0 mm 2 mps 765 mmHg 74%
    19:00 +7°C° 0 mm 1 mps 766 mmHg 77%
    20:00 +6°C° 0 mm 1 mps 766 mmHg 79%
    21:00 +6°C° 0 mm 1 mps 766 mmHg 82%
    22:00 +6°C° 0 mm 1 mps 766 mmHg 83%
    23:00 +5°C° 0 mm 1 mps 767 mmHg 85%

    Tomorrow, 22 October, Monday

    Time Temperature Precipitation Wind Pressure Humidity
    00:00 +5°C° 0 mm 1 mps 767 mmHg 86%
    01:00 +5°C° 0 mm 1 mps 767 mmHg 87%
    02:00 +4°C° 0 mm 1 mps 767 mmHg 88%
    03:00 +4°C° 0 mm 1 mps 767 mmHg 88%
    04:00 +4°C° 0 mm 1 mps 767 mmHg 88%
    05:00 +3°C° 0 mm 0 mps 767 mmHg 89%
    06:00 +3°C° 0 mm 0 mps 767 mmHg 89%
    07:00 +4°C° 0 mm 0 mps 768 mmHg 84%
    08:00 +6°C° 0 mm 1 mps 768 mmHg 79%
    09:00 +7°C° 0 mm 1 mps 768 mmHg 74%
    10:00 +8°C° 0 mm 1 mps 768 mmHg 69%
    11:00 +9°C° 0 mm 1 mps 768 mmHg 64%
    12:00 +9°C° 0 mm 2 mps 767 mmHg 58%
    13:00 +9°C° 0 mm 2 mps 767 mmHg 57%
    14:00 +9°C° 0 mm 2 mps 767 mmHg 55%
    15:00 +9°C° 0 mm 2 mps 766 mmHg 54%
    16:00 +8°C° 0 mm 2 mps 766 mmHg 58%
    17:00 +8°C° 0 mm 1 mps 766 mmHg 61%
    18:00 +7°C° 0 mm 1 mps 766 mmHg 65%
    19:00 +6°C° 0 mm 2 mps 766 mmHg 66%
    20:00 +6°C° 0 mm 2 mps 766 mmHg 67%
    21:00 +5°C° 0 mm 2 mps 765 mmHg 68%
    22:00 +5°C° 0 mm 2 mps 765 mmHg 69%
    23:00 +4°C° 0 mm 3 mps 765 mmHg 70%

    Day after tomorrow, 23 October, Tuesday

    Time Temperature Precipitation Wind Pressure Humidity
    00:00 +4°C° 0 mm 3 mps 765 mmHg 71%
    01:00 +3°C° 0 mm 3 mps 764 mmHg 71%
    02:00 +3°C° 0 mm 3 mps 764 mmHg 71%
    03:00 +3°C° 0 mm 3 mps 764 mmHg 71%
    04:00 +3°C° 0 mm 3 mps 763 mmHg 70%
    05:00 +3°C° 0 mm 4 mps 763 mmHg 70%
    06:00 +3°C° 0 mm 4 mps 763 mmHg 70%
    07:00 +4°C° 0 mm 4 mps 762 mmHg 65%
    08:00 +5°C° 0 mm 4 mps 762 mmHg 61%
    09:00 +6°C° 0 mm 4 mps 762 mmHg 56%
    10:00 +8°C° 0 mm 5 mps 761 mmHg 51%
    11:00 +9°C° 0 mm 5 mps 760 mmHg 46%
    12:00 +10°C° 0 mm 6 mps 760 mmHg 41%
    13:00 +10°C° 0 mm 6 mps 759 mmHg 40%
    14:00 +10°C° 0 mm 6 mps 758 mmHg 40%
    15:00 +11°C° 0 mm 6 mps 758 mmHg 39%
    16:00 +10°C° 0.1 mm 6 mps 757 mmHg 44%
    17:00 +9°C° 0.1 mm 6 mps 757 mmHg 50%
    18:00 +9°C° 0.1 mm 6 mps 756 mmHg 55%
    19:00 +9°C° 0.2 mm 6 mps 756 mmHg 60%
    20:00 +9°C° 0.2 mm 6 mps 755 mmHg 64%
    21:00 +9°C° 0.2 mm 7 mps 754 mmHg 69%
    22:00 +9°C° 0.3 mm 7 mps 754 mmHg 70%
    23:00 +9°C° 0.3 mm 7 mps 753 mmHg 72%

    24 October, Wednesday

    Time Temperature Precipitation Wind Pressure Humidity
    00:00 +10°C° 0.3 mm 7 mps 753 mmHg 73%
    01:00 +10°C° 0 mm 6 mps 752 mmHg 69%
    02:00 +10°C° 0 mm 6 mps 752 mmHg 65%
    03:00 +10°C° 0 mm 6 mps 752 mmHg 62%
    04:00 +10°C° 0.2 mm 5 mps 751 mmHg 63%
    05:00 +10°C° 0.2 mm 5 mps 751 mmHg 63%
    06:00 +10°C° 0.2 mm 5 mps 751 mmHg 64%
    07:00 +10°C° 0 mm 5 mps 751 mmHg 66%
    08:00 +10°C° 0 mm 5 mps 751 mmHg 69%
    09:00 +10°C° 0 mm 5 mps 750 mmHg 71%
    10:00 +12°C° 0 mm 5 mps 750 mmHg 69%
    11:00 +13°C° 0 mm 6 mps 750 mmHg 66%
    12:00 +13°C° 0 mm 6 mps 750 mmHg 64%
    13:00 +13°C° 0 mm 5 mps 750 mmHg 63%
    14:00 +13°C° 0 mm 5 mps 750 mmHg 62%
    15:00 +13°C° 0 mm 4 mps 750 mmHg 60%
    16:00 +12°C° 0 mm 4 mps 750 mmHg 64%
    17:00 +11°C° 0 mm 3 mps 750 mmHg 67%
    18:00 +10°C° 0 mm 3 mps 750 mmHg 71%
    19:00 +10°C° 0 mm 3 mps 750 mmHg 73%
    20:00 +10°C° 0 mm 3 mps 750 mmHg 76%
    21:00 +10°C° 0 mm 4 mps 750 mmHg 79%
    22:00 +10°C° 0 mm 4 mps 750 mmHg 83%
    23:00 +10°C° 0 mm 4 mps 750 mmHg 86%

    25 October, Thursday

    Time Temperature Precipitation Wind Pressure Humidity
    00:00 +10°C° 0 mm 4 mps 750 mmHg 90%
    01:00 +10°C° 0 mm 4 mps 750 mmHg 91%
    02:00 +10°C° 0 mm 4 mps 749 mmHg 92%
    03:00 +9°C° 0 mm 5 mps 749 mmHg 93%
    04:00 +9°C° 0 mm 5 mps 749 mmHg 92%
    05:00 +9°C° 0 mm 5 mps 749 mmHg 90%
    06:00 +10°C° 0 mm 6 mps 748 mmHg 89%
    07:00 +10°C° 0.5 mm 6 mps 748 mmHg 78%
    08:00 +11°C° 0.5 mm 7 mps 748 mmHg 66%
    09:00 +12°C° 0.5 mm 8 mps 747 mmHg 54%
    10:00 +13°C° 0 mm 8 mps 747 mmHg 50%
    11:00 +15°C° 0 mm 8 mps 747 mmHg 46%
    12:00 +16°C° 0 mm 8 mps 746 mmHg 42%
    13:00 +16°C° 0 mm 7 mps 746 mmHg 43%
    14:00 +16°C° 0 mm 7 mps 746 mmHg 44%
    15:00 +16°C° 0 mm 6 mps 746 mmHg 45%
    16:00 +16°C° 0 mm 6 mps 745 mmHg 46%
    17:00 +15°C° 0 mm 6 mps 745 mmHg 47%
    18:00 +15°C° 0 mm 6 mps 745 mmHg 49%
    19:00 +15°C° 0 mm 6 mps 745 mmHg 48%
    20:00 +15°C° 0 mm 6 mps 745 mmHg 47%
    21:00 +15°C° 0 mm 7 mps 745 mmHg 47%
    22:00 +15°C° 0 mm 7 mps 744 mmHg 48%
    23:00 +15°C° 0 mm 6 mps 744 mmHg 48%

    26 October, Friday

    Time Temperature Precipitation Wind Pressure Humidity
    00:00 +14°C° 0 mm 6 mps 744 mmHg 49%
    01:00 +14°C° 0.1 mm 6 mps 744 mmHg 52%
    02:00 +14°C° 0.1 mm 5 mps 744 mmHg 55%
    03:00 +13°C° 0.1 mm 4 mps 744 mmHg 58%
    04:00 +13°C° 0.1 mm 4 mps 744 mmHg 61%
    05:00 +12°C° 0.1 mm 4 mps 744 mmHg 64%
    06:00 +12°C° 0.1 mm 3 mps 744 mmHg 67%
    07:00 +12°C° 0.1 mm 3 mps 745 mmHg 70%
    08:00 +11°C° 0.1 mm 4 mps 745 mmHg 74%
    09:00 +11°C° 0.1 mm 4 mps 745 mmHg 78%
    10:00 +10°C° 0.4 mm 4 mps 745 mmHg 78%
    11:00 +9°C° 0.4 mm 3 mps 746 mmHg 78%
    12:00 +9°C° 0.4 mm 3 mps 746 mmHg 79%
    13:00 +9°C° 0.1 mm 3 mps 746 mmHg 74%
    14:00 +9°C° 0.1 mm 3 mps 747 mmHg 70%
    15:00 +9°C° 0.1 mm 3 mps 747 mmHg 65%
    16:00 +9°C° 0 mm 3 mps 748 mmHg 66%
    17:00 +8°C° 0 mm 2 mps 748 mmHg 67%
    18:00 +8°C° 0 mm 2 mps 749 mmHg 69%
    19:00 +7°C° 0 mm 2 mps 749 mmHg 69%
    20:00 +7°C° 0 mm 2 mps 749 mmHg 70%
    21:00 +7°C° 0 mm 3 mps 749 mmHg 71%
    22:00 +5°C° 0 mm 3 mps 750 mmHg 73%
    23:00 +6°C° 0 mm 2 mps 750 mmHg 75%
    Show more